Location: Observatoire
(46.1952°N, 5.3391°E)
Time: 23:05:12
(UTC+01:00)

Tiros 1 despin weight - Pass Details

Date: 20 February 2026
Orbit: 556 x 593 km, 48.2° (Epoch: 9 March)

Event Time Altitude Azimuth Distance (km) Brightness Sun altitude
Rises 14:50:53 0° 229° (SW) 2,741 ? 27.1°
Reaches altitude 10° 14:53:13 10° 223° (SW) 1,842 ? 26.9°
Maximum altitude 14:57:13 45° 150° (SSE) 768 ? 26.5°
Drops below altitude 10° 15:01:13 10° 78° (ENE) 1,838 ? 26.1°
Sets 15:03:32 0° 72° (ENE) 2,734 ? 25.9°
